DW8965 Weather Reports


time (UTC)temp
C
wind
direction
speed
KPH
gust
KPH
rain 1hr
cm
rain 24hr
cm
rain mn
cm
humidity
%
barometer
mb
20200227112004 3 22 3.2 19.3 0.00 0.23 0.05 76 1019.3
20200227111003 3 108 4.8 14.5 0.00 0.23 0.05 75 1019.6
20200227110005 3 69 4.8 19.3 0.00 0.28 0.05 75 1019.8
20200227105003 3 2 6.4 19.3 0.00 0.28 0.05 76 1020.0
20200227104004 3 16 6.4 27.4 0.00 0.28 0.05 75 1020.2
20200227103004 3 27 6.4 17.7 0.00 0.28 0.05 77 1020.3
20200227102003 3 96 1.6 14.5 0.00 0.28 0.05 78 1020.4
20200227101004 3 60 3.2 12.9 0.00 0.30 0.05 77 1021.0
20200227100003 3 95 3.2 16.1 0.00 0.30 0.05 78 1021.2
20200227095004 3 68 3.2 22.5 0.00 0.30 0.05 79 1021.1
20200227094003 2 98 1.6 9.7 0.00 0.30 0.05 80 1021.6
20200227093009 2 183 1.6 14.5 0.00 0.30 0.05 81 1021.7
20200227092004 2 197 1.6 14.5 0.00 0.30 0.05 82 1021.8
20200227091004 2 9 1.6 11.3 0.00 0.30 0.05 83 1022.1
20200227090004 2 53 1.6 16.1 0.00 0.30 0.05 83 1022.1
20200227085003 2 19 3.2 16.1 0.00 0.33 0.05 84 1022.3
20200227084003 2 33 1.6 12.9 0.00 0.33 0.05 85 1022.4
20200227083003 2 35 1.6 11.3 0.00 0.33 0.05 84 1022.4
20200227082004 2 65 3.2 17.7 0.00 0.36 0.05 85 1022.6
20200227081004 2 21 3.2 14.5 0.00 0.36 0.05 85 1022.7
20200227080003 2 360 3.2 16.1 0.00 0.38 0.05 86 1022.6
20200227075004 2 67 1.6 11.3 0.00 0.38 0.05 86 1022.6
20200227074003 1 21 1.6 14.5 0.03 0.38 0.05 86 1022.8
20200227073004 1 23 1.6 9.7 0.03 0.38 0.05 86 1022.4
20200227072003 1 122 0.0 4.8 0.03 0.38 0.05 86 1022.7
20200227071003 1 132 1.6 9.7 0.03 0.38 0.05 87 1022.7
20200227070003 1 34 1.6 12.9 0.03 0.43 0.05 87 1022.9
20200227065003 1 72 1.6 12.9 0.03 0.43 0.05 87 1022.9
20200227064003 1 11 0.0 8.0 0.00 0.38 0.03 88 1023.1
20200227063004 1 0 0.0 3.2 0.00 0.38 0.03 89 1023.1
20200227062004 1 143 0.0 4.8 0.00 0.38 0.03 89 1023.1
20200227061003 1 0 0.0 0.0 0.00 0.38 0.03 90 1022.9
20200227060004 1 158 0.0 9.7 0.03 0.38 0.03 90 1023.2
20200227055004 1 0 0.0 3.2 0.03 0.38 0.03 91 1023.3
20200227054003 1 0 0.0 1.6 0.03 0.38 0.03 91 1023.5
20200227053004 1 90 0.0 9.7 0.03 0.43 0.03 91 1023.4
20200227052004 1 77 1.6 14.5 0.03 0.43 0.03 91 1023.4
20200227051004 0 90 0.0 9.7 0.03 0.43 0.03 93 1023.4
20200227050003 0 0 0.0 3.2 0.00 0.38 0.00 93 1023.5
20200227045004 0 0 0.0 0.0 0.00 0.38 0.00 93 1023.5
20200227044003 0 0 0.0 0.0 0.00 0.38 0.00 92 1023.5
20200227043003 0 0 0.0 1.6 0.00 0.38 0.00 92 1023.6
20200227042003 1 13 0.0 8.0 0.00 0.38 0.00 91 1023.7
20200227041003 1 66 1.6 11.3 0.00 0.38 0.00 91 1023.6
20200227040003 1 31 0.0 9.7 0.00 0.38 0.00 90 1023.6
20200227035004 1 0 0.0 3.2 0.00 0.38 0.00 90 1023.7
20200227034003 1 0 0.0 4.8 0.00 0.38 0.00 90 1023.9
20200227033004 1 27 0.0 11.3 0.00 0.38 0.00 91 1023.8
20200227032003 1 90 0.0 4.8 0.00 0.43 0.00 91 1023.8
20200227031004 1 271 0.0 11.3 0.00 0.46 0.00 90 1023.8
20200227030003 1 144 1.6 11.3 0.00 0.46 0.00 89 1023.7
20200227025003 1 75 1.6 12.9 0.00 0.48 0.00 88 1023.8
20200227024003 1 102 1.6 17.7 0.00 0.51 0.00 87 1023.8
20200227023003 1 39 3.2 14.5 0.00 0.51 0.00 86 1023.7
20200227022004 1 82 1.6 11.3 0.00 0.51 0.00 86 1023.8
20200227021003 1 138 0.0 8.0 0.00 0.51 0.00 86 1024.1
20200227020004 1 184 1.6 9.7 0.00 0.51 0.00 86 1024.3
20200227015004 1 0 0.0 4.8 0.00 0.51 0.00 85 1023.8
20200227014003 1 314 0.0 11.3 0.00 0.51 0.00 86 1024.0
20200227013004 1 90 1.6 8.0 0.00 0.51 0.00 85 1024.0
20200227012003 1 189 1.6 14.5 0.00 0.51 0.00 87 1023.8
20200227011003 1 0 0.0 3.2 0.00 0.51 0.00 89 1023.8
20200227010005 1 0 0.0 0.0 0.00 0.51 0.00 89 1023.6
20200227005003 1 0 0.0 1.6 0.00 0.51 0.00 87 1023.9
20200227004003 1 87 0.0 4.8 0.00 0.51 0.00 85 1023.9
20200227003004 1 135 0.0 4.8 0.00 0.51 0.00 87 1023.8
20200227002003 1 0 0.0 4.8 0.00 0.51 0.00 87 1023.5
20200227001003 1 50 1.6 11.3 0.00 0.51 0.00 87 1023.5
20200227000003 1 13 0.0 4.8 0.00 0.51 0.00 88 1023.5
20200226235004 1 0 0.0 3.2 0.00 0.51 0.00 87 1023.5
20200226234003 1 0 0.0 1.6 0.00 0.51 0.00 89 1023.4
20200226233004 1 0 0.0 3.2 0.00 0.51 0.00 89 1023.1
20200226232003 1 0 0.0 1.6 0.00 0.51 0.00 88 1023.2
20200226231004 1 47 0.0 8.0 0.00 0.51 0.00 87 1023.1
20200226230009 1 132 0.0 8.0 0.00 0.51 0.00 87 1023.2
20200226225004 1 10 0.0 8.0 0.00 0.51 0.51 87 1023.2
20200226224003 1 74 0.0 4.8 0.00 0.51 0.51 87 1022.9
20200226223003 1 0 0.0 4.8 0.00 0.51 0.51 87 1023.2
20200226222005 1 0 0.0 3.2 0.00 0.51 0.51 89 1022.9
20200226221003 1 0 0.0 0.0 0.00 0.51 0.51 88 1022.9
20200226220003 1 40 1.6 8.0 0.00 0.51 0.51 87 1022.9
20200226215004 1 24 0.0 8.0 0.00 0.51 0.51 86 1022.8
20200226214003 2 295 0.0 11.3 0.00 0.51 0.51 86 1022.8
20200226213003 2 110 0.0 11.3 0.00 0.51 0.51 86 1022.6
20200226212003 2 43 1.6 14.5 0.00 0.51 0.51 85 1022.7
20200226211004 2 188 0.0 8.0 0.00 0.53 0.51 85 1022.5
20200226210003 2 89 1.6 12.9 0.00 0.64 0.51 85 1022.6
20200226205003 2 15 0.0 12.9 0.00 0.66 0.51 84 1022.4
20200226204004 2 244 1.6 9.7 0.00 0.66 0.51 87 1022.3
20200226203003 2 54 1.6 9.7 0.00 0.69 0.51 87 1022.2
20200226202004 2 66 0.0 12.9 0.00 0.71 0.51 87 1021.8
20200226201003 2 0 0.0 9.7 0.00 0.71 0.51 88 1021.8
20200226200003 2 89 0.0 9.7 0.00 0.71 0.51 88 1021.8
20200226195003 2 99 1.6 11.3 0.00 0.71 0.51 87 1021.6
20200226194003 2 211 0.0 4.8 0.00 0.71 0.51 87 1021.5
20200226193003 2 25 1.6 9.7 0.00 0.71 0.51 87 1021.7
20200226192004 2 270 0.0 4.8 0.00 0.71 0.51 88 1021.3
20200226191003 2 35 1.6 11.3 0.00 0.71 0.51 87 1021.3
20200226190004 2 0 0.0 3.2 0.00 0.71 0.51 88 1021.4
20200226185003 2 81 0.0 8.0 0.00 0.71 0.51 88 1021.4
20200226184003 2 93 0.0 4.8 0.00 0.71 0.51 88 1021.2
20200226183003 2 81 0.0 8.0 0.00 0.71 0.51 87 1021.1
20200226182003 2 40 1.6 9.7 0.00 0.71 0.51 87 1021.1
20200226181004 2 68 1.6 9.7 0.00 0.71 0.51 86 1020.6
20200226180003 2 46 0.0 11.3 0.00 0.71 0.51 85 1020.8
20200226175004 2 63 3.2 14.5 0.00 0.71 0.51 87 1020.4
20200226174003 2 1 3.2 17.7 0.00 0.71 0.51 86 1020.4
20200226173003 2 104 0.0 11.3 0.00 0.71 0.51 87 1020.2
20200226172003 2 31 1.6 11.3 0.00 0.71 0.51 86 1020.0
20200226171004 2 291 0.0 4.8 0.00 0.71 0.51 88 1019.7
20200226170003 2 111 1.6 16.1 0.00 0.71 0.51 87 1019.7
20200226165004 2 0 0.0 1.6 0.00 0.71 0.51 90 1019.6
20200226164003 2 55 0.0 4.8 0.00 0.71 0.51 89 1019.5
20200226163003 2 45 0.0 8.0 0.00 0.71 0.51 88 1019.0
20200226162003 2 65 1.6 17.7 0.00 0.71 0.51 88 1019.0
20200226161004 2 182 1.6 11.3 0.00 0.71 0.51 88 1019.0
20200226160003 2 38 3.2 19.3 0.00 0.71 0.51 87 1018.8
20200226155004 2 43 3.2 19.3 0.00 0.71 0.51 89 1018.8
20200226154003 2 40 1.6 12.9 0.00 0.71 0.51 90 1018.5
20200226153004 2 57 1.6 9.7 0.00 0.71 0.51 90 1018.6
20200226152004 2 63 1.6 11.3 0.00 0.71 0.51 90 1018.4
20200226151003 2 17 1.6 9.7 0.00 0.71 0.51 91 1018.2
20200226150004 2 358 1.6 9.7 0.00 0.71 0.51 90 1018.0
20200226145004 2 20 1.6 24.1 0.00 0.71 0.51 90 1017.8
20200226144003 2 34 1.6 16.1 0.00 0.71 0.51 91 1017.7
20200226143003 2 31 1.6 9.7 0.00 0.71 0.51 90 1017.4
20200226142003 2 22 1.6 9.7 0.00 0.71 0.51 89 1017.2
20200226141003 2 37 1.6 11.3 0.03 0.71 0.51 90 1017.0
20200226140004 2 2 0.0 8.0 0.10 0.71 0.51 91 1016.9
20200226135004 2 8 1.6 8.0 0.13 0.71 0.51 91 1016.9
20200226134004 2 19 0.0 4.8 0.15 0.71 0.51 91 1016.9
20200226133003 2 358 0.0 8.0 0.18 0.71 0.51 91 1016.6
20200226132003 1 44 1.6 12.9 0.18 0.71 0.51 91 1016.6
20200226131003 1 27 1.6 9.7 0.15 0.69 0.48 91 1016.5
20200226130003 2 251 1.6 9.7 0.10 0.64 0.43 90 1016.0
20200226125003 2 121 0.0 4.8 0.05 0.61 0.38 90 1015.9
20200226124003 2 0 0.0 3.2 0.03 0.56 0.36 90 1015.5
20200226123004 2 270 0.0 4.8 0.00 0.53 0.33 90 1015.4
20200226122004 2 273 0.0 8.0 0.00 0.53 0.33 88 1015.1
20200226121003 2 0 0.0 3.2 0.00 0.53 0.33 87 1015.0
20200226120004 2 69 0.0 9.7 0.03 0.53 0.33 88 1014.8
20200226115004 2 43 1.6 16.1 0.03 0.53 0.33 89 1014.8
20200226114003 2 25 1.6 9.7 0.03 0.53 0.33 90 1014.8
20200226113004 2 45 0.0 8.0 0.03 0.53 0.33 90 1014.5